Location: Città del Vaticano
(41.9033°N, 12.4533°E)
Time: 16:35:20
(UTC+00:00)

Daily predictions for brighter satellites

Satellite Brightness Start Highest point End
(mag) Time Altitude Azimuth Time Altitude Azimuth Time Altitude Azimuth
Cosmos 1745 Rocket 4.1 19:11:07 10° N 19:17:13 65° E 19:23:20 10° SSE
USA 267 4.5 19:14:27 10° E 19:18:32 17° ESE 19:22:35 10° SSE
IGS 5A 3.9 19:16:17 10° S 19:20:22 66° WSW 19:24:31 10° NNW
H-2A R/B 2.9 19:16:54 10° S 19:20:39 57° W 19:24:25 10° NNW
Cosmos 1943 4.4 19:15:12 10° SW 19:20:41 50° WNW 19:26:11 10° NNE
Ariane Rocket 3.7 19:16:46 10° SE 19:21:28 40° ENE 19:26:12 10° N
USA 276 1.9 19:19:59 10° SW 19:22:58 72° SE 19:25:58 10° ENE
SL-14 R/B 4.0 19:19:39 10° SSW 19:23:27 56° W 19:27:19 10° N
X-37B 0.2 19:21:27 10° WSW 19:24:15 90° N 19:27:04 10° ENE
SPOT 1/Viking Rocket 3.9 19:19:19 10° SE 19:24:15 50° ENE 19:29:13 10° N
MetOp-A 4.1 19:22:43 10° S 19:26:55 62° W 19:31:30 10° NNW
Resurs 01 Rocket 1.7 19:29:21 10° SSE 19:33:44 70° ENE 19:38:11 10° N
SL-12 R/B (Aux Motor) 3.2 19:34:29 10° WNW 19:36:23 61° SSW 19:37:56 13° SE
MOS 1 4.3 19:31:48 10° SSE 19:37:30 83° ENE 19:43:14 10° NNW
Cosmos 1455 3.7 19:36:16 10° NNE 19:39:17 22° ENE 19:42:01 11° SE
Atlas Centaur 2 3.6 19:38:44 10° SW 19:41:45 15° SSW 19:44:26 10° SSE
Lacrosse 5 2.9 19:39:43 10° NW 19:44:32 39° NE 19:49:18 10° ESE
Terra 3.6 19:42:44 10° ESE 19:45:57 18° ENE 19:49:09 10° NNE
ATLAS 2AS CENTAUR R/B 3.2 19:41:34 10° NNW 19:48:30 51° NE 19:54:31 12° ESE
Meteor 2-5 Rocket 3.7 19:43:25 10° S 19:48:53 71° E 19:54:25 10° NNE
Meteor 2-10 Rocket 3.7 19:43:58 10° NNW 19:48:58 69° W 19:53:56 10° S
Cosmos 1025 Rocket 2.9 19:47:03 10° S 19:51:17 71° E 19:55:34 10° NNE
Cosmos 1371 Rocket 4.2 19:53:28 10° SSW 19:58:41 80° WNW 20:03:59 10° NNE
Cosmos 1452 Rocket 4.4 19:54:55 11° SSE 19:59:16 30° E 20:03:48 10° NE
Cosmos 1455 Rocket 3.0 19:55:43 10° N 20:00:05 88° WSW 20:04:23 10° S
Cosmos 2315 Rocket 4.0 19:54:13 10° S 20:00:34 84° E 20:06:53 10° N
SL-24 R/B 4.1 19:56:44 12° SSE 20:00:42 79° ENE 20:05:20 10° N
CZ-4B R/B 1.7 20:00:35 10° N 20:03:25 55° WNW 20:06:13 10° SSW
Cosmos 1709 Rocket 4.1 20:00:04 10° N 20:06:18 85° W 20:12:34 10° S
ARIANE 5 R/B 4.4 20:03:39 12° ESE 20:06:18 20° ENE 20:09:29 10° NNE
MetOp-B 4.2 20:06:26 11° SSE 20:11:31 86° WSW 20:16:54 10° NNW
Cosmos 1607 4.4 20:06:51 10° SW 20:13:03 66° NW 20:19:14 10° NNE
IRAS Rocket 4.3 20:07:26 10° NNE 20:13:05 88° WNW 20:18:38 10° SSW
CZ-2C R/B 4.4 20:09:53 10° NNE 20:14:01 33° E 20:16:29 20° SSE
USA 245 3.5 20:10:47 16° SSE 20:14:33 72° ENE 20:18:25 10° N
NOSS 2-1 (E) 4.5 20:15:39 10° NNW 20:20:22 58° NE 20:25:05 19° SE
Cosmos 1833 Rocket 3.5 20:18:36 18° SSE 20:21:49 31° ESE 20:26:43 10° NE
Meteor 1-24 Rocket 3.9 20:17:13 10° SSW 20:22:29 68° WNW 20:27:53 10° N
Cosmos 1536 Rocket 3.7 20:22:40 20° SSE 20:25:27 53° E 20:29:42 10° NNE
Cosmos 2228 4.2 20:21:57 10° NNE 20:25:34 27° ENE 20:27:15 21° ESE
ERS-1 Rocket 3.2 20:23:28 21° SE 20:26:42 56° ENE 20:31:38 10° N
H-2A R/B 4.4 20:26:24 10° NNW 20:30:03 26° WNW 20:33:44 10° WSW
CARTOSAT-1 4.1 20:28:46 15° S 20:32:11 56° W 20:36:26 10° NNW
SPOT 3 Rocket 3.7 20:28:37 16° S 20:32:43 73° WSW 20:37:57 10° NNW
Cosmos 489 Rocket 4.5 20:35:43 10° NNW 20:42:04 85° ENE 20:46:07 24° SSE
Cosmos 2154 Rocket 4.4 20:37:10 10° N 20:43:11 48° ENE 20:46:31 25° SE
ATLAS 5 CENTAUR R/B 3.5 20:36:26 10° NW 20:46:00 43° WSW 20:48:19 21° S
Cosmos 2082 Rocket 3.5 20:46:10 20° ESE 20:46:54 21° E 20:51:02 10° NE
Cosmos 1741 Rocket 4.4 20:42:43 10° N 20:47:56 54° ENE 20:50:33 28° SE
Cosmos 1271 Rocket 3.4 20:44:08 10° NNW 20:48:01 51° W 20:50:15 23° SSW
Cosmos 1544 Rocket 4.4 20:47:48 10° NNW 20:51:57 46° W 20:54:48 19° SSW
Lacrosse 5 rocket 2.2 20:49:42 10° WNW 20:53:19 36° SW 20:54:36 28° SSW
Tiangong 1.5 20:50:52 10° W 20:53:52 45° SSW 20:53:52 45° SSW
Helios 1A Rocket 3.1 20:53:26 30° S 20:55:20 66° WSW 20:59:26 10° NNW
SPOT 5 2.9 20:55:22 26° S 20:57:44 61° WSW 21:02:03 10° NNW
USA 276 4.5 20:56:22 10° WNW 20:58:53 24° NNW 21:01:25 10° NE
X-37B 1.5 20:57:12 10° WNW 20:59:53 40° N 21:01:12 23° NE
NOSS 2-1 (C) 4.4 20:57:05 10° NW 21:01:56 66° WSW 21:05:16 29° SSE
USA 267 3.1 20:55:41 10° NE 21:02:14 72° SE 21:08:45 10° SW
RESURS DK-1 2.5 21:05:32 10° NNW 21:09:39 64° ENE 21:10:41 45° ESE
Resurs 01 Rocket 4.4 21:09:33 10° WSW 21:10:42 11° W 21:11:51 10° WNW
Cosmos 1455 4.2 21:11:35 10° NW 21:14:39 23° W 21:16:48 15° SW
Cosmos 2184 Rocket 4.1 21:09:03 10° NNW 21:15:12 70° W 21:18:46 27° S
Cosmos 967 Rocket 4.4 21:11:34 16° SSW 21:16:46 72° ESE 21:23:14 10° NE
ASTRO F (AKARI) 4.4 21:16:19 63° S 21:16:49 81° WSW 21:20:22 10° NNW
Cosmos 1850 Rocket 3.9 21:12:15 10° NNW 21:17:28 80° WSW 21:19:25 39° S
Terra 2.4 21:21:16 31° SSW 21:23:17 51° W 21:27:56 10° NNW
Lacrosse 5 2.5 21:22:44 10° WNW 21:27:31 42° SW 21:28:44 36° SSW
COSMOS 2406 3.2 21:25:53 36° S 21:28:13 66° ESE 21:33:57 10° NNE
Cosmos 1331 Rocket 4.1 21:25:33 24° SSW 21:28:49 75° WNW 21:34:09 10° NNE
CSL-04 DEB 4.4 21:26:02 10° NNE 21:30:24 80° ESE 21:31:22 54° S
Cosmos 2369 4.3 21:27:14 10° NNW 21:32:46 47° ENE 21:34:58 32° ESE
Cosmos 1892 Rocket 3.5 21:33:27 58° SSE 21:34:08 69° E 21:38:30 10° NNE
USA 234 4.0 21:29:35 14° E 21:35:05 48° NNE 21:41:20 10° NW
Cosmos 2341 Rocket 4.2 21:29:15 10° N 21:35:30 58° E 21:37:44 38° SE
Cosmos 2058 Rocket 3.6 21:31:57 10° N 21:36:12 45° ENE 21:36:44 42° E
Cosmos 1892 3.3 21:38:17 41° ENE 21:38:17 41° ENE 21:41:25 10° NNE
Cosmos 1980 Rocket 2.8 21:33:29 10° NNW 21:38:58 46° ENE 21:41:03 33° ESE
ATLAS 2AS CENTAUR R/B 3.7 21:33:01 10° NW 21:39:06 34° WSW 21:41:57 24° SSW
Cosmos 1697 Rocket 2.6 21:35:28 10° NNW 21:41:07 88° WSW 21:42:50 47° SSE
Cosmos 1900 4.5 21:36:21 10° NNW 21:41:31 71° ENE 21:42:53 48° SE
ARIANE 5 R/B 3.5 21:41:11 33° SW 21:42:27 41° W 21:46:41 10° NNW
Cosmos 1408 2.9 21:44:51 52° NE 21:44:51 52° NE 21:47:40 10° NNE
Meteor 1-11 4.1 21:49:11 47° S 21:50:52 81° E 21:56:29 10° NNE
In-Cosmos 22 Rocket 4.4 21:50:56 46° SE 21:52:03 54° E 21:57:24 10° NNE
GP-B 2.9 21:50:20 10° N 21:54:48 89° E 21:55:18 70° S
SAR-Lupe-4 4.2 21:51:33 10° N 21:55:01 48° WNW 21:55:20 46° W
Cosmos 1302 Rocket 3.9 21:54:27 48° SSW 21:55:57 88° WNW 22:01:11 10° NNE
Cosmos 1867 4.4 21:52:47 10° NNW 21:58:02 44° NE 22:00:06 31° E
SL-8 R/B 3.7 21:56:05 10° WNW 22:00:55 78° NNE 22:02:03 52° E
Spot 4 4.1 22:00:14 50° ESE 22:00:58 56° ENE 22:05:40 10° N
Cosmos 2181 Rocket 3.9 22:02:46 48° SSE 22:04:32 74° E 22:10:43 10° N
Cosmos 1833 Rocket 3.9 22:00:26 10° SW 22:05:37 38° WNW 22:10:50 10° N
ATLAS 5 CENTAUR R/B 3.0 22:10:08 22° ENE 22:10:08 22° ENE 22:11:54 10° NE
Cosmos 2084 Rocket 3.5 22:05:29 10° NNW 22:09:23 64° NE 22:09:23 64° NE
Cosmos 2322 Rocket 4.3 22:07:15 10° N 22:11:11 19° NE 22:14:59 10° E
Okean 1-7 Rocket 3.5 22:11:18 68° E 22:11:19 68° E 22:15:45 10° NNE
SJ 16-02 3.7 22:12:12 10° NNE 22:14:43 15° ENE 22:16:14 13° E
Cosmos 2278 4.1 22:11:30 10° NNW 22:17:08 55° ENE 22:18:44 42° ESE
Cosmos 968 Rocket 3.5 22:21:23 10° NNW 22:26:32 65° WSW 22:27:10 59° SW
Cosmos 2082 Rocket 2.7 22:27:58 32° SW 22:30:30 57° WNW 22:36:08 10° NNE
ADEOS Rocket 3.5 22:30:44 44° SE 22:33:18 75° ENE 22:40:55 10° N
Cosmos 1758 Rocket 4.0 22:37:57 51° ENE 22:37:57 51° ENE 22:41:49 10° NNE
Cosmos 1825 2.8 22:38:07 51° NW 22:38:07 51° NW 22:41:17 10° N
Cosmos 1932 4.4 22:35:39 43° SW 22:37:51 84° WNW 22:44:13 10° NNE
Nadezhda 3 Rocket 4.2 22:37:35 46° SE 22:38:46 53° E 22:44:43 10° NNE
ERS-2 3.4 22:39:05 10° NNE 22:41:23 33° NE 22:41:23 33° NE
USA 267 4.4 22:38:56 10° NE 22:44:58 41° NNW 22:51:00 10° W
Cosmos 2360 Rocket 4.1 22:45:39 10° N 22:50:09 23° NE 22:53:49 13° E
Cosmos 1633 3.6 22:51:55 42° N 22:51:55 42° N 22:54:20 10° N
Cosmos 1812 Rocket 3.6 22:47:03 10° N 22:51:22 79° NE 22:51:22 79° NE
ALOS 2 2.7 22:53:39 65° W 22:53:39 65° W 22:57:48 10° NNW
PSLV R/B 4.2 22:51:06 10° NNE 22:55:33 48° E 22:55:33 48° E
H-2A R/B 4.0 22:52:59 10° N 22:57:04 51° WNW 22:57:07 51° WNW
Cosmos 1606 3.5 22:58:11 10° N 23:01:19 47° NE 23:01:19 47° NE
Cosmos 1602 Rocket 3.8 23:02:19 58° WNW 23:02:19 58° WNW 23:06:27 10° N
Cosmos 1486 Rocket 3.9 22:58:16 10° NNW 23:03:28 70° WSW 23:03:45 68° SW
Celestis-02/Orion 38 4.4 23:04:13 70° SE 23:04:50 87° ENE 23:09:57 10° NNW
SL-16 R/B 2.2 23:11:51 10° NNW 23:17:33 75° ENE 23:18:41 57° SE
Cosmos 2058 3.2 23:18:20 66° NE 23:18:20 66° NE 23:22:03 10° N
USA 234 3.3 23:16:55 52° S 23:17:59 58° SW 23:24:27 10° NW
Cosmos-2242 3.4 23:16:29 10° NNW 23:20:11 55° WNW 23:20:11 55° WNW
Cosmos 1980 Rocket 3.5 23:18:03 10° NW 23:22:39 26° WSW 23:22:48 26° WSW
Cosmos 1953 Rocket 3.7 23:27:02 65° ENE 23:27:02 65° ENE 23:31:14 10° NNE
Cosmos 1354 Rocket 3.8 23:23:05 10° NNW 23:28:25 87° WSW 23:28:54 74° S
Cosmos 2219 Rocket 4.3 23:25:33 10° N 23:29:52 22° NE 23:34:09 10° E
CZ-2D R/B 4.2 23:28:00 10° ENE 23:30:42 14° E 23:31:56 13° ESE
Gbstr 26 Del rocket 3.9 23:34:00 43° E 23:34:00 43° E 23:38:04 10° ENE
Resurs 1-4 Rocket 4.0 23:32:16 10° NE 23:35:38 17° E 23:36:57 16° ESE
Cosmos 1825 Rocket 3.9 23:39:29 54° WNW 23:39:29 54° WNW 23:43:32 10° N
Cosmos 1503 Rocket 4.2 23:35:26 10° NNW 23:40:36 55° WSW 23:40:43 55° WSW
Cosmos 1340 Rocket 3.1 23:41:37 62° N 23:41:37 62° N 23:44:57 10° N
Cosmos 1934 Rocket 3.8 23:37:57 10° N 23:44:03 86° W 23:45:24 57° S
Meteor 2-2 Rocket 4.3 23:38:23 10° NNW 23:44:24 81° W 23:45:37 59° S
BREEZE-M DEB (TANK) 3.2 23:45:28 56° N 23:45:28 56° N 23:50:31 10° ENE
Cosmos 972 Rocket 4.3 23:44:13 10° NNW 23:49:20 66° ENE 23:50:42 48° SE
ATLAS 5 CENTAUR R/B 3.3 23:51:32 18° WNW 23:52:55 21° NW 23:56:09 10° N
SJ 16-02 1.7 23:49:19 10° NNW 23:53:10 54° WNW 23:53:10 54° WNW
Meteor 2-3 Rocket 4.1 23:53:02 44° SE 23:54:12 51° E 23:59:35 10° NNE
Cosmos 1777 Rocket 3.8 23:49:08 10° NNW 23:54:26 80° WSW 23:55:00 70° SSW
